TSC248 KBNA-CYUL

Flight info

Callsign TSC248
Flight time 1h 51m
Altitude 33000
Route PARDN4 NAKIY DCT LWV DCT TROLY DCT CRL DCT YXU DCT TALEB DCT MIGLO HABBS7
Aircraft A21N/M-SDE2E3FGHIRWXY/LB1

Departure

Time 2026-05-06 21:50
Airport Nashville International Airport (KBNA)

Arrival

Time 2026-05-06 23:41
Airport Montreal / Pierre Elliott Trudeau International Airport (CYUL)
Time Latitude Longitude Altitude Speed Heading
2026-05-06 21:30 36.12861 -86.67122 570 ft 0 kts 63°
2026-05-06 21:39 36.12858 -86.67129 575 ft 3 kts 63°
2026-05-06 21:39 36.12851 -86.67151 571 ft 3 kts 43°
2026-05-06 21:40 36.12839 -86.67164 572 ft 1 kts 30°
2026-05-06 21:40 36.12827 -86.67170 571 ft 3 kts 348°
2026-05-06 21:40 36.12820 -86.67168 569 ft 0 kts 332°
2026-05-06 21:42 36.12839 -86.67184 572 ft 7 kts 322°
2026-05-06 21:42 36.12858 -86.67235 570 ft 7 kts 268°
2026-05-06 21:42 36.12826 -86.67305 571 ft 14 kts 223°
2026-05-06 21:42 36.12757 -86.67381 571 ft 11 kts 224°
2026-05-06 21:43 36.12742 -86.67456 576 ft 11 kts 291°
2026-05-06 21:43 36.12811 -86.67557 577 ft 16 kts 312°
2026-05-06 21:43 36.12889 -86.67655 570 ft 16 kts 311°
2026-05-06 21:43 36.12969 -86.67763 571 ft 17 kts 313°
2026-05-06 21:44 36.13044 -86.67859 577 ft 14 kts 313°
2026-05-06 21:44 36.13054 -86.67949 578 ft 11 kts 225°
2026-05-06 21:44 36.12982 -86.67986 574 ft 12 kts 197°
2026-05-06 21:44 36.12884 -86.68024 577 ft 15 kts 198°
2026-05-06 21:45 36.12793 -86.68060 578 ft 12 kts 197°
2026-05-06 21:45 36.12697 -86.68095 578 ft 17 kts 195°
2026-05-06 21:45 36.12582 -86.68135 575 ft 17 kts 196°
2026-05-06 21:45 36.12470 -86.68175 577 ft 17 kts 196°
2026-05-06 21:46 36.12365 -86.68213 574 ft 15 kts 197°
2026-05-06 21:46 36.12280 -86.68244 578 ft 11 kts 196°
2026-05-06 21:46 36.12201 -86.68272 581 ft 14 kts 195°
2026-05-06 21:46 36.12082 -86.68314 581 ft 22 kts 195°
2026-05-06 21:47 36.11945 -86.68363 586 ft 18 kts 195°
2026-05-06 21:47 36.11846 -86.68399 591 ft 12 kts 197°
2026-05-06 21:47 36.11776 -86.68426 593 ft 10 kts 203°
2026-05-06 21:47 36.11746 -86.68463 597 ft 1 kts 242°
2026-05-06 21:48 36.11743 -86.68477 599 ft 4 kts 259°
2026-05-06 21:48 36.11752 -86.68543 614 ft 9 kts 287°
2026-05-06 21:48 36.11774 -86.68608 611 ft 8 kts 303°
2026-05-06 21:48 36.11837 -86.68619 602 ft 11 kts 16°
2026-05-06 21:49 36.11848 -86.68615 602 ft 0 kts 15°
2026-05-06 21:49 36.11920 -86.68590 600 ft 42 kts 16°
2026-05-06 21:49 36.12452 -86.68381 579 ft 115 kts 17°
2026-05-06 21:49 36.13401 -86.68015 631 ft 164 kts 17°
2026-05-06 21:50 36.14515 -86.67594 1217 ft 170 kts 16°
2026-05-06 21:50 36.15684 -86.67271 2004 ft 173 kts
2026-05-06 21:50 36.16870 -86.67136 2748 ft 167 kts
2026-05-06 21:50 36.18034 -86.67057 3221 ft 173 kts
2026-05-06 21:51 36.19270 -86.66908 3540 ft 183 kts
2026-05-06 21:51 36.20570 -86.66735 3834 ft 195 kts
2026-05-06 21:51 36.21970 -86.66560 4032 ft 209 kts
2026-05-06 21:51 36.23453 -86.66371 4302 ft 219 kts
2026-05-06 21:52 36.25017 -86.66171 4504 ft 235 kts
2026-05-06 21:52 36.26729 -86.65940 4677 ft 257 kts
2026-05-06 21:52 36.28526 -86.65690 5108 ft 270 kts
2026-05-06 21:52 36.30416 -86.65426 5734 ft 274 kts
2026-05-06 21:53 36.32313 -86.65155 6533 ft 275 kts 359°
2026-05-06 21:53 36.34213 -86.64879 7301 ft 275 kts 359°
2026-05-06 21:53 36.36119 -86.64625 7977 ft 276 kts 357°
2026-05-06 21:53 36.38046 -86.64409 8623 ft 280 kts 357°
2026-05-06 21:54 36.40002 -86.64193 9290 ft 284 kts 356°
2026-05-06 21:54 36.41980 -86.63951 9946 ft 287 kts 357°
2026-05-06 21:54 36.43973 -86.63646 10535 ft 289 kts 358°
2026-05-06 21:54 36.45986 -86.63354 11053 ft 295 kts 356°
2026-05-06 21:55 36.48057 -86.63111 11467 ft 303 kts 354°
2026-05-06 21:55 36.50210 -86.62879 11798 ft 316 kts 355°
2026-05-06 21:55 36.52443 -86.62628 12175 ft 327 kts 355°
2026-05-06 21:55 36.54749 -86.62362 12563 ft 339 kts 356°
2026-05-06 21:56 36.57138 -86.62017 12932 ft 352 kts 358°
2026-05-06 21:56 36.59598 -86.61453 13319 ft 371 kts
2026-05-06 21:56 36.62054 -86.60288 13784 ft 384 kts 15°
2026-05-06 21:56 36.64527 -86.58932 14174 ft 392 kts 17°
2026-05-06 21:57 36.66999 -86.57522 14574 ft 399 kts 17°
2026-05-06 21:57 36.69539 -86.56073 15044 ft 403 kts 16°
2026-05-06 21:57 36.72133 -86.54627 15265 ft 416 kts 14°
2026-05-06 21:57 36.74832 -86.53171 15394 ft 430 kts 14°
2026-05-06 21:58 36.77625 -86.51689 15518 ft 443 kts 14°
2026-05-06 21:58 36.80487 -86.50176 15746 ft 451 kts 14°
2026-05-06 21:58 36.83395 -86.48632 16135 ft 455 kts 14°
2026-05-06 21:58 36.86312 -86.47074 16547 ft 458 kts 14°
2026-05-06 21:59 36.89257 -86.45489 16974 ft 461 kts 14°
2026-05-06 21:59 36.92206 -86.43895 17393 ft 464 kts 14°
2026-05-06 21:59 36.95188 -86.42283 17828 ft 468 kts 14°
2026-05-06 21:59 36.98193 -86.40660 18155 ft 473 kts 14°
2026-05-06 22:00 37.01238 -86.39021 18436 ft 478 kts 14°
2026-05-06 22:00 37.04290 -86.37375 18804 ft 477 kts 14°
2026-05-06 22:00 37.07339 -86.35730 19239 ft 477 kts 14°
2026-05-06 22:00 37.10353 -86.34103 19677 ft 477 kts 14°
2026-05-06 22:01 37.13408 -86.32454 20133 ft 477 kts 14°
2026-05-06 22:01 37.16448 -86.30811 20588 ft 477 kts 14°
2026-05-06 22:01 37.19501 -86.29161 21082 ft 477 kts 14°
2026-05-06 22:01 37.22541 -86.27519 21550 ft 477 kts 13°
2026-05-06 22:02 37.25589 -86.25872 22032 ft 477 kts 13°
2026-05-06 22:02 37.28635 -86.24225 22520 ft 476 kts 13°
2026-05-06 22:02 37.31675 -86.22576 23018 ft 475 kts 13°
2026-05-06 22:02 37.34712 -86.20920 23524 ft 474 kts 13°
2026-05-06 22:03 37.37740 -86.19266 23957 ft 473 kts 13°
2026-05-06 22:03 37.40716 -86.17638 24367 ft 471 kts 13°
2026-05-06 22:03 37.43713 -86.15998 24841 ft 469 kts 12°
2026-05-06 22:03 37.46695 -86.14367 25285 ft 466 kts 12°
2026-05-06 22:04 37.49669 -86.12743 25692 ft 465 kts 12°
2026-05-06 22:04 37.52639 -86.11125 26057 ft 466 kts 12°
2026-05-06 22:04 37.55627 -86.09501 26369 ft 468 kts 12°
2026-05-06 22:04 37.58620 -86.07872 26695 ft 469 kts 12°
2026-05-06 22:05 37.61621 -86.06236 27021 ft 470 kts 12°
2026-05-06 22:05 37.64632 -86.04586 27354 ft 471 kts 12°
2026-05-06 22:05 37.67638 -86.02929 27722 ft 472 kts 11°
2026-05-06 22:05 37.70653 -86.01264 28057 ft 472 kts 11°
2026-05-06 22:06 37.73658 -85.99610 28400 ft 471 kts 11°
2026-05-06 22:06 37.76663 -85.97958 28784 ft 470 kts 11°
2026-05-06 22:06 37.79666 -85.96306 29055 ft 471 kts 11°
2026-05-06 22:06 37.82632 -85.94675 29348 ft 471 kts 11°
2026-05-06 22:07 37.85643 -85.93019 29655 ft 471 kts 11°
2026-05-06 22:07 37.88651 -85.91358 30063 ft 470 kts 10°
2026-05-06 22:07 37.91651 -85.89699 30324 ft 470 kts
2026-05-06 22:07 37.94649 -85.88039 30580 ft 470 kts
2026-05-06 22:08 37.97644 -85.86377 30854 ft 470 kts
2026-05-06 22:08 38.00628 -85.84724 31114 ft 468 kts
2026-05-06 22:08 38.03613 -85.83069 31383 ft 467 kts
2026-05-06 22:08 38.06558 -85.81430 31620 ft 467 kts
2026-05-06 22:09 38.09574 -85.79753 31817 ft 468 kts
2026-05-06 22:09 38.12528 -85.78112 32053 ft 469 kts
2026-05-06 22:09 38.15557 -85.76430 32247 ft 470 kts
2026-05-06 22:09 38.18523 -85.74782 32399 ft 472 kts
2026-05-06 22:10 38.21528 -85.73108 32628 ft 471 kts
2026-05-06 22:10 38.24525 -85.71431 32864 ft 471 kts
2026-05-06 22:10 38.27529 -85.69751 32996 ft 473 kts
2026-05-06 22:10 38.30558 -85.68062 33003 ft 478 kts
2026-05-06 22:11 38.35678 -85.65221 33003 ft 488 kts
2026-05-06 22:11 38.41972 -85.61699 33000 ft 500 kts
2026-05-06 22:12 38.48382 -85.58082 33217 ft 506 kts
2026-05-06 22:12 38.51612 -85.56257 33354 ft 509 kts
2026-05-06 22:12 38.54846 -85.54427 33586 ft 508 kts
2026-05-06 22:13 38.58083 -85.52594 33936 ft 507 kts
2026-05-06 22:13 38.61307 -85.50770 34154 ft 506 kts
2026-05-06 22:13 38.64490 -85.48969 34359 ft 505 kts
2026-05-06 22:13 38.67702 -85.47149 34606 ft 504 kts
2026-05-06 22:14 38.70909 -85.45333 34825 ft 502 kts
2026-05-06 22:14 38.74093 -85.43531 35003 ft 502 kts
2026-05-06 22:14 38.80520 -85.39911 35105 ft 509 kts
2026-05-06 22:15 38.87090 -85.36206 35040 ft 520 kts
2026-05-06 22:15 38.93778 -85.32396 35034 ft 531 kts
2026-05-06 22:16 39.00585 -85.28497 35026 ft 539 kts
2026-05-06 22:16 39.07368 -85.24586 35011 ft 535 kts
2026-05-06 22:17 39.14160 -85.20674 35024 ft 534 kts
2026-05-06 22:17 39.20952 -85.16785 35025 ft 533 kts
2026-05-06 22:18 39.27728 -85.12895 35034 ft 534 kts
2026-05-06 22:18 39.34512 -85.08982 35019 ft 533 kts
2026-05-06 22:19 39.41274 -85.05068 35028 ft 533 kts
2026-05-06 22:19 39.48010 -85.01157 35080 ft 533 kts
2026-05-06 22:20 39.54772 -84.97226 35067 ft 532 kts
2026-05-06 22:20 39.61534 -84.93296 35057 ft 531 kts
2026-05-06 22:21 39.68284 -84.89368 35054 ft 531 kts
2026-05-06 22:21 39.75008 -84.85437 35017 ft 529 kts
2026-05-06 22:22 39.81720 -84.81499 35016 ft 529 kts
2026-05-06 22:22 39.88448 -84.77553 35018 ft 529 kts
2026-05-06 22:23 39.95163 -84.73602 35054 ft 530 kts
2026-05-06 22:23 40.01856 -84.69654 35042 ft 530 kts
2026-05-06 22:24 40.08587 -84.65677 35022 ft 530 kts
2026-05-06 22:24 40.15307 -84.61701 35039 ft 530 kts
2026-05-06 22:25 40.21997 -84.57720 35004 ft 527 kts
2026-05-06 22:25 40.28676 -84.53747 35005 ft 527 kts
2026-05-06 22:26 40.35333 -84.49790 35059 ft 527 kts
2026-05-06 22:26 40.42009 -84.45805 35044 ft 528 kts
2026-05-06 22:27 40.48730 -84.41779 35030 ft 528 kts
2026-05-06 22:27 40.55389 -84.37783 35028 ft 529 kts
2026-05-06 22:28 40.62078 -84.33766 35032 ft 528 kts
2026-05-06 22:28 40.68765 -84.29737 35025 ft 529 kts
2026-05-06 22:29 40.75458 -84.25688 35015 ft 528 kts
2026-05-06 22:29 40.82143 -84.21645 35050 ft 528 kts
2026-05-06 22:30 40.88825 -84.17599 35040 ft 528 kts
2026-05-06 22:30 40.95478 -84.13553 35034 ft 529 kts
2026-05-06 22:31 41.02156 -84.09479 35010 ft 529 kts
2026-05-06 22:31 41.08846 -84.05393 35004 ft 528 kts
2026-05-06 22:32 41.15537 -84.01302 35003 ft 529 kts
2026-05-06 22:32 41.22204 -83.97212 35041 ft 530 kts
2026-05-06 22:33 41.28928 -83.93090 35018 ft 531 kts
2026-05-06 22:33 41.35634 -83.88948 34980 ft 531 kts
2026-05-06 22:34 41.42295 -83.84818 35002 ft 531 kts
2026-05-06 22:34 41.48982 -83.80667 34972 ft 529 kts
2026-05-06 22:35 41.55674 -83.76532 34973 ft 529 kts
2026-05-06 22:35 41.62364 -83.72396 35029 ft 530 kts 10°
2026-05-06 22:36 41.69066 -83.68229 35006 ft 531 kts 10°
2026-05-06 22:36 41.75717 -83.64058 35001 ft 531 kts 10°
2026-05-06 22:37 41.82416 -83.59842 35032 ft 531 kts 11°
2026-05-06 22:37 41.89091 -83.55644 34973 ft 528 kts 11°
2026-05-06 22:38 41.95756 -83.51461 34952 ft 528 kts 11°
2026-05-06 22:38 42.02286 -83.46651 35005 ft 552 kts 26°
2026-05-06 22:39 42.05217 -83.43207 35010 ft 568 kts 38°
2026-05-06 22:39 42.07742 -83.39055 35006 ft 579 kts 50°
2026-05-06 22:39 42.11935 -83.29669 35000 ft 583 kts 54°
2026-05-06 22:40 42.16063 -83.20355 34997 ft 583 kts 53°
2026-05-06 22:40 42.20240 -83.10955 35035 ft 584 kts 54°
2026-05-06 22:41 42.26454 -82.96835 35013 ft 582 kts 54°
2026-05-06 22:42 42.30558 -82.87428 35015 ft 581 kts 54°
2026-05-06 22:42 42.34635 -82.78071 34971 ft 580 kts 54°
2026-05-06 22:43 42.38733 -82.68680 35029 ft 580 kts 54°
2026-05-06 22:43 42.42816 -82.59276 34993 ft 577 kts 55°
2026-05-06 22:44 42.46876 -82.49880 35002 ft 576 kts 55°
2026-05-06 22:44 42.50892 -82.40564 35001 ft 575 kts 55°
2026-05-06 22:45 42.54916 -82.31190 34995 ft 575 kts 55°
2026-05-06 22:45 42.58940 -82.21785 34996 ft 576 kts 55°
2026-05-06 22:46 42.62950 -82.12380 34998 ft 576 kts 55°
2026-05-06 22:46 42.66963 -82.02947 35002 ft 576 kts 55°
2026-05-06 22:47 42.70965 -81.93507 35002 ft 576 kts 55°
2026-05-06 22:47 42.74958 -81.84057 35011 ft 574 kts 56°
2026-05-06 22:48 42.78913 -81.74673 34991 ft 570 kts 56°
2026-05-06 22:48 42.82852 -81.65288 34974 ft 570 kts 56°
2026-05-06 22:49 42.86782 -81.55900 34978 ft 571 kts 55°
2026-05-06 22:49 42.90722 -81.46465 34976 ft 572 kts 56°
2026-05-06 22:50 42.94648 -81.37032 35019 ft 571 kts 56°
2026-05-06 22:50 42.98551 -81.27615 35000 ft 569 kts 56°
2026-05-06 22:51 43.02434 -81.18201 34987 ft 568 kts 56°
2026-05-06 22:51 43.06236 -81.08705 34998 ft 569 kts 58°
2026-05-06 22:52 43.09799 -80.99029 35030 ft 570 kts 60°
2026-05-06 22:52 43.13284 -80.89289 34999 ft 568 kts 60°
2026-05-06 22:53 43.16806 -80.79619 34997 ft 566 kts 59°
2026-05-06 22:53 43.20342 -80.70042 34981 ft 566 kts 59°
2026-05-06 22:54 43.23879 -80.60414 34983 ft 565 kts 60°
2026-05-06 22:54 43.27381 -80.50814 34929 ft 558 kts 60°
2026-05-06 22:55 43.30839 -80.41287 34936 ft 557 kts 60°
2026-05-06 22:55 43.33708 -80.33355 34943 ft 558 kts 60°
2026-05-06 22:56 43.37155 -80.23793 34950 ft 558 kts 60°
2026-05-06 22:56 43.41152 -80.12673 34965 ft 558 kts 60°
2026-05-06 22:57 43.44018 -80.04676 34987 ft 556 kts 60°
2026-05-06 22:57 43.47434 -79.95123 34987 ft 555 kts 61°
2026-05-06 22:58 43.50809 -79.85646 34985 ft 554 kts 61°
2026-05-06 22:58 43.54194 -79.76088 34948 ft 554 kts 61°
2026-05-06 22:59 43.57567 -79.66535 35012 ft 553 kts 61°
2026-05-06 22:59 43.60920 -79.57008 34962 ft 550 kts 61°
2026-05-06 23:00 43.64254 -79.47500 34992 ft 548 kts 62°
2026-05-06 23:00 43.67555 -79.38064 34935 ft 547 kts 61°
2026-05-06 23:01 43.70862 -79.28589 34947 ft 547 kts 61°
2026-05-06 23:01 43.74158 -79.19106 34986 ft 547 kts 62°
2026-05-06 23:02 43.77441 -79.09634 34974 ft 545 kts 62°
2026-05-06 23:02 43.80708 -79.00170 34934 ft 545 kts 62°
2026-05-06 23:03 43.83962 -78.90685 34932 ft 545 kts 62°
2026-05-06 23:03 43.87216 -78.81190 34986 ft 546 kts 62°
2026-05-06 23:04 43.90457 -78.71699 34959 ft 542 kts 63°
2026-05-06 23:04 43.93644 -78.62301 34937 ft 542 kts 63°
2026-05-06 23:05 43.96854 -78.52846 34946 ft 541 kts 63°
2026-05-06 23:05 44.00058 -78.43389 34942 ft 541 kts 63°
2026-05-06 23:06 44.03181 -78.33878 34961 ft 541 kts 65°
2026-05-06 23:06 44.06019 -78.24246 34948 ft 540 kts 67°
2026-05-06 23:07 44.08772 -78.14532 34944 ft 539 kts 67°
2026-05-06 23:07 44.11569 -78.04872 34942 ft 538 kts 66°
2026-05-06 23:08 44.14414 -77.95234 34901 ft 537 kts 66°
2026-05-06 23:08 44.17230 -77.85653 34911 ft 537 kts 66°
2026-05-06 23:09 44.20040 -77.75985 34907 ft 537 kts 67°
2026-05-06 23:09 44.22831 -77.66333 34909 ft 537 kts 67°
2026-05-06 23:10 44.25624 -77.56643 34893 ft 537 kts 67°
2026-05-06 23:10 44.28401 -77.46963 34903 ft 537 kts 67°
2026-05-06 23:11 44.31173 -77.37281 34946 ft 536 kts 68°
2026-05-06 23:11 44.33930 -77.27615 34942 ft 535 kts 68°
2026-05-06 23:12 44.36671 -77.17958 34916 ft 534 kts 68°
2026-05-06 23:12 44.39394 -77.08300 34920 ft 534 kts 68°
2026-05-06 23:13 44.42113 -76.98647 34920 ft 533 kts 68°
2026-05-06 23:13 44.44829 -76.88991 34943 ft 533 kts 68°
2026-05-06 23:14 44.47534 -76.79340 34934 ft 532 kts 68°
2026-05-06 23:14 44.48882 -76.74514 34832 ft 532 kts 68°
2026-05-06 23:14 44.50222 -76.69691 34596 ft 531 kts 69°
2026-05-06 23:14 44.51534 -76.64940 34368 ft 529 kts 69°
2026-05-06 23:15 44.52860 -76.60130 34133 ft 529 kts 69°
2026-05-06 23:15 44.54188 -76.55315 33901 ft 528 kts 69°
2026-05-06 23:15 44.55514 -76.50504 33632 ft 527 kts 69°
2026-05-06 23:15 44.56835 -76.45712 33358 ft 526 kts 69°
2026-05-06 23:16 44.58152 -76.40930 33100 ft 524 kts 69°
2026-05-06 23:16 44.59458 -76.36177 32836 ft 522 kts 69°
2026-05-06 23:16 44.60761 -76.31426 32568 ft 521 kts 69°
2026-05-06 23:16 44.62060 -76.26677 32276 ft 519 kts 70°
2026-05-06 23:17 44.63346 -76.21957 32010 ft 517 kts 70°
2026-05-06 23:17 44.64645 -76.17268 31756 ft 515 kts 69°
2026-05-06 23:17 44.65992 -76.12614 31499 ft 514 kts 69°
2026-05-06 23:17 44.67353 -76.08055 31241 ft 512 kts 68°
2026-05-06 23:18 44.68742 -76.03454 30993 ft 511 kts 69°
2026-05-06 23:18 44.70127 -75.98854 30743 ft 509 kts 69°
2026-05-06 23:18 44.71470 -75.94268 30518 ft 508 kts 71°
2026-05-06 23:18 44.72748 -75.89638 30271 ft 508 kts 72°
2026-05-06 23:19 44.73974 -75.84984 29991 ft 507 kts 73°
2026-05-06 23:19 44.75176 -75.80308 29703 ft 507 kts 73°
2026-05-06 23:19 44.76369 -75.75648 29415 ft 508 kts 73°
2026-05-06 23:19 44.77578 -75.70978 29137 ft 508 kts 72°
2026-05-06 23:20 44.78804 -75.66308 28856 ft 509 kts 72°
2026-05-06 23:20 44.80046 -75.61624 28580 ft 510 kts 72°
2026-05-06 23:20 44.81294 -75.56934 28305 ft 511 kts 72°
2026-05-06 23:20 44.82538 -75.52254 28038 ft 512 kts 72°
2026-05-06 23:21 44.83769 -75.47605 27771 ft 513 kts 72°
2026-05-06 23:21 44.85029 -75.42896 27515 ft 515 kts 71°
2026-05-06 23:21 44.86339 -75.38184 27221 ft 517 kts 70°
2026-05-06 23:21 44.87680 -75.33488 26961 ft 518 kts 70°
2026-05-06 23:22 44.89045 -75.28772 26713 ft 519 kts 70°
2026-05-06 23:22 44.90407 -75.24058 26453 ft 519 kts 70°
2026-05-06 23:22 44.91760 -75.19329 26209 ft 520 kts 70°
2026-05-06 23:22 44.93100 -75.14585 25956 ft 521 kts 70°
2026-05-06 23:23 44.94428 -75.09827 25714 ft 521 kts 71°
2026-05-06 23:23 44.95749 -75.05057 25463 ft 522 kts 71°
2026-05-06 23:23 44.97072 -75.00269 25138 ft 522 kts 71°
2026-05-06 23:23 44.98442 -74.95511 23969 ft 530 kts 66°
2026-05-06 23:24 45.00184 -74.90955 23050 ft 519 kts 60°
2026-05-06 23:24 45.01964 -74.86565 22581 ft 520 kts 61°
2026-05-06 23:24 45.03734 -74.82148 21912 ft 515 kts 61°
2026-05-06 23:24 45.05481 -74.77746 21268 ft 510 kts 62°
2026-05-06 23:25 45.07204 -74.73384 20617 ft 505 kts 62°
2026-05-06 23:25 45.08907 -74.69058 19985 ft 501 kts 62°
2026-05-06 23:25 45.10592 -74.64770 19351 ft 495 kts 62°
2026-05-06 23:25 45.12268 -74.60531 18730 ft 492 kts 61°
2026-05-06 23:26 45.13999 -74.56361 18090 ft 490 kts 59°
2026-05-06 23:26 45.15785 -74.52271 17615 ft 489 kts 58°
2026-05-06 23:26 45.17600 -74.48216 16963 ft 484 kts 57°
2026-05-06 23:26 45.19391 -74.44236 16389 ft 472 kts 57°
2026-05-06 23:27 45.21097 -74.40415 16048 ft 443 kts 58°
2026-05-06 23:27 45.22680 -74.36822 15739 ft 418 kts 58°
2026-05-06 23:27 45.24188 -74.33360 15054 ft 407 kts 58°
2026-05-06 23:27 45.25658 -74.29953 14388 ft 401 kts 58°
2026-05-06 23:28 45.27082 -74.26629 13727 ft 396 kts 57°
2026-05-06 23:28 45.28520 -74.23264 13014 ft 391 kts 58°
2026-05-06 23:28 45.29884 -74.20072 12456 ft 377 kts 58°
2026-05-06 23:28 45.31229 -74.16927 11878 ft 366 kts 57°
2026-05-06 23:29 45.32534 -74.13885 11294 ft 356 kts 57°
2026-05-06 23:29 45.33818 -74.10895 10776 ft 349 kts 57°
2026-05-06 23:29 45.35043 -74.08032 10539 ft 331 kts 57°
2026-05-06 23:29 45.36350 -74.05420 10239 ft 320 kts 45°
2026-05-06 23:30 45.37941 -74.03207 10153 ft 321 kts 39°
2026-05-06 23:30 45.39589 -74.01073 10012 ft 320 kts 39°
2026-05-06 23:30 45.41246 -73.98926 9542 ft 323 kts 39°
2026-05-06 23:30 45.42864 -73.96821 9341 ft 306 kts 39°
2026-05-06 23:31 45.44393 -73.94822 9199 ft 292 kts 39°
2026-05-06 23:31 45.45889 -73.92866 8695 ft 292 kts 39°
2026-05-06 23:31 45.47366 -73.90939 8281 ft 289 kts 39°
2026-05-06 23:31 45.48837 -73.89021 7917 ft 284 kts 39°
2026-05-06 23:32 45.50278 -73.87141 7378 ft 278 kts 39°
2026-05-06 23:32 45.51710 -73.85274 6680 ft 279 kts 39°
2026-05-06 23:32 45.53124 -73.83425 6203 ft 270 kts 39°
2026-05-06 23:32 45.54478 -73.81646 5786 ft 262 kts 39°
2026-05-06 23:33 45.55816 -73.79888 5420 ft 261 kts 39°
2026-05-06 23:33 45.57143 -73.78150 5018 ft 256 kts 39°
2026-05-06 23:33 45.58400 -73.76500 4881 ft 233 kts 39°
2026-05-06 23:33 45.59564 -73.74971 4518 ft 226 kts 39°
2026-05-06 23:34 45.60710 -73.73470 4301 ft 222 kts 39°
2026-05-06 23:34 45.61851 -73.71974 4249 ft 223 kts 39°
2026-05-06 23:34 45.62996 -73.70472 4087 ft 224 kts 39°
2026-05-06 23:34 45.64138 -73.68972 3797 ft 223 kts 39°
2026-05-06 23:35 45.65276 -73.67478 3610 ft 222 kts 39°
2026-05-06 23:35 45.66246 -73.65760 3417 ft 225 kts 64°
2026-05-06 23:35 45.66461 -73.63576 3064 ft 229 kts 99°
2026-05-06 23:35 45.65858 -73.61589 3016 ft 230 kts 125°
2026-05-06 23:36 45.64838 -73.59820 3010 ft 231 kts 135°
2026-05-06 23:36 45.63715 -73.58181 3008 ft 231 kts 139°
2026-05-06 23:36 45.62351 -73.57164 2996 ft 217 kts 174°
2026-05-06 23:36 45.60931 -73.57362 3023 ft 199 kts 205°
2026-05-06 23:37 45.59866 -73.58412 3009 ft 175 kts 227°
2026-05-06 23:37 45.58999 -73.59557 3002 ft 166 kts 227°
2026-05-06 23:37 45.58161 -73.60662 3004 ft 162 kts 227°
2026-05-06 23:37 45.57334 -73.61754 3008 ft 162 kts 227°
2026-05-06 23:38 45.56510 -73.62840 3020 ft 161 kts 227°
2026-05-06 23:38 45.55677 -73.63925 2759 ft 164 kts 226°
2026-05-06 23:38 45.54795 -73.65014 2128 ft 170 kts 223°
2026-05-06 23:38 45.53896 -73.66075 1721 ft 163 kts 225°
2026-05-06 23:39 45.53149 -73.67250 1312 ft 157 kts 233°
2026-05-06 23:39 45.52416 -73.68314 1270 ft 148 kts 217°
2026-05-06 23:39 45.51603 -73.69218 1126 ft 148 kts 223°
2026-05-06 23:39 45.50924 -73.70287 917 ft 141 kts 223°
2026-05-06 23:40 45.50174 -73.71137 720 ft 138 kts 218°
2026-05-06 23:40 45.49471 -73.72092 528 ft 138 kts 224°
2026-05-06 23:40 45.48756 -73.73024 271 ft 138 kts 222°
2026-05-06 23:40 45.48057 -73.73948 114 ft 134 kts 223°
2026-05-06 23:41 45.47512 -73.74666 111 ft 78 kts 223°
2026-05-06 23:41 45.47334 -73.74881 114 ft 12 kts 209°
2026-05-06 23:41 45.47259 -73.74931 114 ft 12 kts 196°
2026-05-06 23:41 45.47179 -73.74958 112 ft 13 kts 195°
2026-05-06 23:42 45.47139 -73.74974 111 ft 0 kts 195°
2026-05-06 23:42 45.47137 -73.74974 111 ft 0 kts 195°
2026-05-06 23:42 45.47099 -73.74988 111 ft 9 kts 194°
2026-05-06 23:43 45.47038 -73.75008 110 ft 9 kts 192°
2026-05-06 23:43 45.46972 -73.75028 110 ft 13 kts 192°
2026-05-06 23:43 45.46881 -73.75102 107 ft 16 kts 220°
2026-05-06 23:43 45.46798 -73.75210 107 ft 16 kts 223°
2026-05-06 23:44 45.46715 -73.75319 106 ft 16 kts 223°
2026-05-06 23:44 45.46659 -73.75392 106 ft 16 kts 223°
2026-05-06 23:44 45.46575 -73.75501 105 ft 16 kts 222°
2026-05-06 23:44 45.46463 -73.75647 104 ft 16 kts 221°
2026-05-06 23:45 45.46361 -73.75709 104 ft 15 kts 192°
2026-05-06 23:45 45.46269 -73.75727 104 ft 14 kts 183°
2026-05-06 23:45 45.46203 -73.75726 103 ft 14 kts 178°
2026-05-06 23:45 45.46105 -73.75719 102 ft 13 kts 173°
2026-05-06 23:46 45.46060 -73.75629 104 ft 15 kts 91°
2026-05-06 23:46 45.46066 -73.75477 104 ft 15 kts 86°
2026-05-06 23:46 45.46049 -73.75341 104 ft 13 kts 117°
2026-05-06 23:46 45.46009 -73.75248 105 ft 8 kts 132°
2026-05-06 23:47 45.45966 -73.75233 105 ft 5 kts 175°
2026-05-06 23:47 45.45944 -73.75230 105 ft 2 kts 176°
2026-05-06 23:47 45.45926 -73.75229 105 ft 0 kts 178°